Hourly Data Report for July 11, 2021

WINNIPEG THE FORKS
MANITOBA
Current Station Operator: ECCC - MSC

49°53'18.008" N
97°07'46.007" W
230.00 m
5023262
71579
XWN

Download Data

Hourly Data (July 2021)
Hourly Data Report for July 11, 2021
TIME
LST
Temp Definition
°C
Dew Point Definition
°C
Rel Hum Definition
%
Precip. Amount Definition
mm

Wind Dir Definition
10's deg

Wind Spd Definition
km/h
Visibility Definition
km
Stn Press Definition
kPa
Hmdx Definition


Wind Chill Definition


Weather Definition


00:00 23.7 15.5 60 0.0 20 3   98.79 28   LegendNANA
01:00 22.7 15.8 65 0.0 0 1   98.78 27   LegendNANA
02:00 21.6 16.0 71 0.0   0   98.77 26   LegendNANA
03:00 20.6 15.7 74 0.0 0 1   98.77 25   LegendNANA
04:00 20.5 15.5 73 0.0   0   98.77 25   LegendNANA
05:00 20.0 15.6 75 0.0   0   98.77     LegendNANA
06:00 20.7 15.2 71 0.0   0   98.81 25   LegendNANA
07:00 21.7 15.7 69 0.0   0   98.81 26   LegendNANA
08:00 24.2 16.2 61 0.0   0   98.79 29   LegendNANA
09:00 27.4 15.8 49 0.0   0   98.76 32   LegendNANA
10:00 30.3 14.2 38 0.0 21 2   98.74 34   LegendNANA
11:00 32.0 14.4 34 0.0 21 7   98.74 36   LegendNANA
12:00 33.7 12.5 28 0.0 23 7   98.70 36   LegendNANA
13:00 33.9 11.4 26 0.0 23 7   98.64 36   LegendNANA
14:00 34.4 9.8 22 0.0 22 11   98.60 36   LegendNANA
15:00 34.2 10.1 23 0.0 20 10   98.58 36   LegendNANA
16:00 34.1 10.3 23 0.0 20 4   98.55 36   LegendNANA
17:00 34.4 11.0 24 0.0 20 10   98.50 36   LegendNANA
18:00 33.5 12.1 27 0.0 20 6   98.47 36   LegendNANA
19:00 32.7 12.7 30 0.0 20 12   98.44 35   LegendNANA
20:00 31.2 14.3 36 0.0 20 8   98.42 35   LegendNANA
21:00 30.0 14.6 39 0.0 20 6   98.44 34   LegendNANA
22:00 28.4 14.0 41 0.0 20 9   98.46 32   LegendNANA
23:00 26.7 14.8 48 0.0 20 10   98.48 31   LegendNANA

Notes on Data Quality.

Legend

  • E = Estimated
  • M = Missing
  • NA = Not Available*
  • [empty] = Indicates an unobserved value
Date modified: